This is the latest recevied weather packets stored in our database for station/object Waldburg. If no packets are shown the sender has not sent any weather packets the latest 10 day(s).
| Time | Temp. | Humidity | Pressure | Rain* | Wind** | Luminosity | Snow |
|---|---|---|---|---|---|---|---|
| 1778232732 | 16.11° C | 69% | 1015.2 hPa | 0 mm | - | - | - |
| 1778230932 | 15° C | 72% | 1015.1 hPa | 0 mm | - | - | - |
| 1778229132 | 13.33° C | 77% | 1015.2 hPa | 0 mm | - | - | - |
| 1778227331 | 11.11° C | 91% | 1015.1 hPa | 0 mm | - | - | - |
| 1778225532 | 8.89° C | 96% | 1015.2 hPa | 0 mm | - | - | - |
| 1778223731 | 7.78° C | 96% | 1015.2 hPa | 0 mm | - | - | - |
| 1778221931 | 7.22° C | 96% | 1015.1 hPa | 0 mm | - | - | - |
| 1778220131 | 6.11° C | 95% | 1014.9 hPa | 0 mm | - | - | - |
| 1778218331 | 5.56° C | 94% | 1014.7 hPa | 0 mm | - | - | - |
| 1778216531 | 6.11° C | 94% | 1014.4 hPa | 0 mm | - | - | - |
| 1778214731 | 6.11° C | 93% | 1014.2 hPa | 0 mm | - | - | - |
| 1778212932 | 6.67° C | 92% | 1014.1 hPa | 0 mm | - | - | - |
| 1778211131 | 6.67° C | 92% | 1014 hPa | 0 mm | - | - | - |
| 1778209331 | 7.22° C | 91% | 1014.1 hPa | 0 mm | - | - | - |
| 1778207531 | 7.22° C | 91% | 1014 hPa | 0 mm | - | - | - |
| 1778205731 | 7.22° C | 90% | 1013.9 hPa | 0 mm | - | - | - |
| 1778203932 | 7.22° C | 90% | 1014.1 hPa | 0 mm | - | - | - |
| 1778202131 | 7.78° C | 90% | 1014 hPa | 0 mm | - | - | - |
| 1778200330 | 7.78° C | 89% | 1014.3 hPa | 0 mm | - | - | - |
| 1778198529 | 7.78° C | 88% | 1014.2 hPa | 0 mm | - | - | - |
| 1778196729 | 8.33° C | 87% | 1014.4 hPa | 0 mm | - | - | - |
| 1778194935 | 8.33° C | 87% | 1014.6 hPa | 0 mm | - | - | - |
| 1778193130 | 8.33° C | 87% | 1014.9 hPa | 0 mm | - | - | - |
| 1778191329 | 8.89° C | 86% | 1015.1 hPa | 0 mm | - | - | - |
| 1778189531 | 8.89° C | 85% | 1014.9 hPa | 2.29 mm | - | - | - |
* Rain since midnight (hover to see other rain measurements)
** Current wind speed in m/s (hover to see current wind gust speed)